TimeEST,TemperatureF,Dew PointF,Humidity,Sea Level PressureIn,VisibilityMPH,Wind Direction,Wind SpeedMPH,Gust SpeedMPH,PrecipitationIn,Events,Conditions,WindDirDegrees,DateUTC
12:00 AM,73.4,69.8,88,30.06,6.2,Calm,Calm,-,N/A,,Partly Cloudy,0,2014-01-07 05:00:00
1:00 AM,75,73,92,30.07,8,Calm,Calm,,,,Scattered Clouds,,2014-01-07 06:00:00
1:00 AM,75.2,73.4,94,30.06,6.2,Calm,Calm,-,N/A,,Scattered Clouds,0,2014-01-07 06:00:00
2:00 AM,75.2,71.6,89,30.05,6.2,Calm,Calm,-,N/A,,Scattered Clouds,0,2014-01-07 07:00:00
3:00 AM,69.8,66.2,88,30.08,-9999.0,North,19.6,-,N/A,Rain,Rain Showers,360,2014-01-07 08:00:00
3:33 AM,69.8,66.2,88,30.08,5.0,North,19.6,33.4,N/A,Rain,Light Rain Showers,10,2014-01-07 08:33:00
4:00 AM,69,69,100,30.07,5,North,21.9,,,Rain,Light Rain,10,2014-01-07 09:00:00
4:00 AM,69.8,69.8,100,30.07,5.0,North,21.9,-,N/A,Rain,Light Rain,10,2014-01-07 09:00:00
6:00 AM,68.0,62.6,83,30.12,6.2,North,19.6,35.7,N/A,,Mostly Cloudy,10,2014-01-07 11:00:00
7:00 AM,67,,,,4,NNE,18.4,,,,,30,2014-01-07 12:00:00
7:00 AM,66.2,64.4,94,30.15,3.7,NNE,18.4,32.2,N/A,Rain,Light Rain Showers,30,2014-01-07 12:00:00
9:00 AM,66.2,62.6,88,30.19,3.7,NNE,21.9,-,N/A,Rain,Light Rain,20,2014-01-07 14:00:00
10:00 AM,66,65,94,30.22,4,NNE,16.1,,,Rain,Light Rain,30,2014-01-07 15:00:00
10:00 AM,66.2,64.4,94,30.22,3.7,NNE,16.1,-,N/A,Rain,Light Rain,30,2014-01-07 15:00:00
11:00 AM,64.4,60.8,88,30.20,3.7,NE,15.0,-,N/A,Rain,Light Rain,40,2014-01-07 16:00:00
1:00 PM,66,65,98,30.14,3,SSW,17.3,,,Rain,Light Rain,200,2014-01-07 18:00:00
1:00 PM,66.2,66.2,100,30.14,-9999.0,NNE,17.3,-,N/A,Rain,Light Rain,20,2014-01-07 18:00:00
1:15 PM,-9999,-9999,N/A,-9999,-9999.0,North,-9999.0,-,N/A,,Unknown,0,2014-01-07 18:15:00
2:00 PM,68.0,62.6,83,30.11,6.2,NNE,13.8,-,N/A,,Mostly Cloudy,20,2014-01-07 19:00:00
3:00 PM,68.0,62.6,83,30.14,5.6,NNE,15.0,-,N/A,Rain,Light Rain Showers,20,2014-01-07 20:00:00
4:00 PM,69,64,78,30.15,8,NE,13.8,,,Rain,Light Rain Showers,40,2014-01-07 21:00:00
4:00 PM,69.8,64.4,83,30.14,6.2,NE,13.8,-,N/A,,Overcast,40,2014-01-07 21:00:00
6:00 PM,68.0,62.6,83,30.16,6.2,NNE,13.8,-,N/A,Rain,Light Rain Showers,20,2014-01-07 23:00:00
8:00 PM,68.0,62.6,83,30.21,6.2,NNE,12.7,-,N/A,Rain,Light Rain,20,2014-01-08 01:00:00
9:00 PM,66.2,62.6,88,30.22,5.6,NNE,11.5,-,N/A,Rain,Light Rain,20,2014-01-08 02:00:00
10:00 PM,68,65,88,30.23,6,NNE,11.5,,,Rain,Light Rain,20,2014-01-08 03:00:00
10:00 PM,68.0,66.2,94,30.22,6.2,NNE,11.5,-,N/A,,Overcast,20,2014-01-08 03:00:00
11:00 PM,66.2,62.6,88,30.22,5.6,NNE,16.1,-,N/A,Rain,Light Rain,30,2014-01-08 04:00:00